Zurück zum Katalog

OPS 0856

AktivMilitärPO
NORAD 2403·PAYLOAD·🇺🇸 United States

Gestartet Aug 19, 1966 von Vandenberg Space Force Base

Loading…

Nächste Überflüge (nächste 24 Stunden)

TLE

AktuellSource: Space-Track

Epoche: Sep 14, 2026, 11:27 UTC

1 02403U 66077A   26257.47742238 -.00000017  00000-0 -92095-2 0  9991
2 02403  90.3281 277.4731 0006131 357.8598   2.2226  8.59841246534138

Verfolge OPS 0856 in Echtzeit mit AllMySat

Download on the App Store